Regional Weather Roundup
Issued by NWS Northern Indiana

Home | Current Version | Previous Version | Text Only | Print | Product List | Glossary On
Versions: 1 2 3 4 5 6 7 8 9 10 11 12 13 14 15 16 17 18 19 20 21 22 23 24 25 26 27 28 29 30 31 32 33 34 35 36 37 38 39 40 41 42 43 44 45 46 47 48 49 50
000
ASUS43 KIWX 262000
RWRIWX

KIWX WEATHER ROUNDUP
NATIONAL WEATHER SERVICE NORTHERN INDIANA
400 PM EDT MON SEP 26 2016

NOTE: "FAIR" INDICATES FEW OR NO CLOUDS BELOW 12,000 FEET WITH NO
SIGNIFICANT WEATHER AND/OR OBSTRUCTIONS TO VISIBILITY.

* THESE STATIONS ARE NOT UNDER NWS QUALITY CONTROL. THEY ALSO MAY NOT
  REPORT WEATHER SUCH AS PRECIPITATION OR FOG.

INZ001>027-262100-
NORTHERN INDIANA

CITY           SKY/WX    TMP DP  RH WIND       PRES   REMARKS
GARY*          SUNNY     72  34  25 W23G36    29.96F
SOUTH BEND     SUNNY     68  41  37 W17G25    29.94F
GOSHEN         SUNNY     68  38  33 W20G26    29.94F
ANGOLA*          N/A     70  63  78 W12       29.93F
FORT WAYNE     MOSUNNY   70  38  31 W14G26    29.96F
PERU/GRISSOM   SUNNY     71  41  33 W25       29.97F

$$
INZ028>050-262100-
CENTRAL INDIANA

CITY           SKY/WX    TMP DP  RH WIND       PRES   REMARKS
LAFAYETTE      SUNNY     70  37  29 W15G24    30.00F
MUNCIE*        CLOUDY    70  42  36 W14G21    30.01F
INDIANAPOLIS   MOSUNNY   70  43  37 W16       30.04S

$$
MIZ043>046-050>051-056>058-064>065-071>073-077>080-262100-
SOUTHWEST LOWER MICHIGAN

CITY           SKY/WX    TMP DP  RH WIND       PRES   REMARKS
BATTLE CREEK   PTSUNNY   67  43  41 W18G24    29.91F
BENTON HARBOR  MOSUNNY   69  40  34 W22G30    29.92F
COLDWATER*     MOSUNNY   68  36  30 W21G29    29.93R
HILLSDALE*     MOSUNNY   68  37  32 W12G24    29.92R
HOLLAND        MOSUNNY   67  44  43 W25G32    29.90S
GRAND RAPIDS   PTSUNNY   67  42  40 W22G35    29.88S
KALAMAZOO      MOSUNNY   67  42  40 W16G24    29.92S
STURGIS*       MOSUNNY   67  37  33 W14G26    29.93S
THREE RIVERS*  FAIR      67  41  38 W15G23    29.93S

$$
OHZ001>008-015>018-024>025-262100-
NORTHWEST OHIO

CITY           SKY/WX    TMP DP  RH WIND       PRES   REMARKS
DEFIANCE       SUNNY     69  41  36 W9G20     29.95F
FINDLAY        MOSUNNY   68  47  46 W17G23    29.95F
TOLEDO EXPRESS CLOUDY    68  46  45 SW20      29.93S
TOLEDO METCALF MOSUNNY   67  47  48 W17       29.94S
LIMA           MOSUNNY   67  50  54 W13       29.97F

$$
AND FOR LAKE MICHIGAN COASTAL AND OPEN LAKE BUOY OBSERVATIONS

STATION/POSITION TEMP    WIND        PRES    VSBY  WAVE
                 AIR SEA DIR/SP/G                  HT/PER
                 (F)     (DEG/KT/KT) (MB)    (MI)  (FT/S)
CALUMET HARBOR    69     260/ 10/ 18 1013.3F
MICHIGAN CITY     65     240/ 22/ 25   N/A
BURNS HARBOR      66     270/ 20/ 23 1014.2F
SAINT JOSEPH      66     250/ 16/ 26 1013.5F
SOUTH LAKE BUOY   64 71  240/ 23/ 29 1011.4          4/ 5
4 MI NW BRIDGMAN  65 65  260/ 19/ 25 1013.5F         6/ 6
MICHIGAN CITY     66 66  270/ 17/ 23   N/A           5/ 5

$$
&&



USA.gov is the U.S. government's official web portal to all federal, state and local government web resources and services.